Location: Herksen
(52.4316°N, 6.1319°E)
Time: 08:18:06
(UTC+00:00)

TSX-5 - Pass Details

Date: 15 May 2026
Orbit: 387 x 993 km, 68.9° (Epoch: 5 June)

Event Time Altitude Azimuth Distance (km) Brightness Sun altitude
Rises 22:21:53 0° 321° (NW) 2,293 8.3 -16.9°
Reaches altitude 10° 22:23:53 10° 316° (NW) 1,451 6.9 -17.0°
Maximum altitude 22:26:56 50° 240° (WSW) 543 3.6 -17.1°
Enters shadow 22:27:30 43° 204° (SSW) 603 3.6 -17.2°
